Weather Service Report


154 
ASCA42 TJSJ 080010
RWRPR 
PUERTO RICO/U.S. VIRGIN ISLANDS HOURLY WEATHER ROUNDUP
NATIONAL WEATHER SERVICE SAN JUAN PR
800 PM AST SUN FEB 07 2016

PRZ001-004-080100-
PUERTO RICO
  
CITY           SKY/WX    TMP DP  RH WIND       PRES   REMARKS
SAN JUAN LMM   CLEAR     79  70  73 VRB3      30.03R                  
PONCE          PTCLDY    90  73  58 E6        30.00  HX  98           
AGUADILLA      PTCLDY    79  73  83 CALM      30.03R                  
CEIBA          CLEAR     75  72  88 SE6       30.06R                  
$$

PRZ006-007-080100-
U.S. VIRGIN ISLANDS
  
CITY           SKY/WX    TMP DP  RH WIND       PRES   REMARKS
CHARLOTTE AMA  CLEAR     79  72  78 SE12      30.03R                  
CHRISTIANSTED  PTCLDY    79  72  78 E7        30.05R                  
$$

HOURLY WEATHER ROUNDUP FOR THE NEWS MEDIA
  
CITY           SKY/WX    TMP DP  RH WIND       PRES   REMARKS
ORLANDO        CLEAR     55  29  36 NW6       30.02R                  
NEW YORK       MOCLDY    40  27  59 NE8       30.03S WCI  34          
NEWARK         CLOUDY    43  25  49 NE7       30.01S                  
CHICAGO        PTCLDY    40  30  67 W12G21    29.75R WCI  33          
HARTFORD       CLOUDY    35  27  72 N6        30.08F WCI  30          
BOSTON         PTCLDY    38  28  67 E10       30.12S WCI  31          
DALLAS         PTCLDY    62  31  31 N3        30.11S                  
PHILADELPHIA   MOCLDY    42  22  44 NE8       29.97F                  
LOS ANGELES    SUNNY     72  39  30 W10       30.08S                  
WASHINGTON DC  MOCLDY    40  23  50 N5        29.95F                  

Return to Home page


Western Regional Climate Center, wrcc@dri.edu